Flag for India Weather past 2 weeks in Madurai, Tamil Nadu, India

81 °F

Broken clouds.

Feels Like: 86 °F
Forecast: 73 / 82 °F
Wind: 6 mph from North

Location: Tiruchchirapalli

Current Time: Nov 30, 2015 at 1:49:42 PM

Latest Report: Nov 30, 2015 at 12:30 PM

Visibility: 4 mi

Pressure: 29.89 "Hg

Humidity: 84%

Dew point: 75 °F

Location of MaduraiLocation

Historic Weather in Madurai — Graph


Madurai temperature yesterday

Maximum temperature yesterday: 84 °F (at 2:00 PM)
Minimum temperature yesterday: 75 °F (at 1:00 AM)
Average temperature yesterday: 78 °F

Past Weeks' High & Low Weather Summary

High88 °F (Nov 17, 2:30 PM)100% (Nov 15, 2:00 PM)29.95 "Hg (Nov 15, 2:00 PM)
Low72 °F (Nov 15, 12:30 PM)52% (Nov 25, 2:00 PM)29.68 "Hg (Nov 16, 2:00 PM)
Average79 °F85%29.84 "Hg
* Reported Nov 15 12:30 PM — Nov 30 12:30 PM, Madurai, Weather by CustomWeather, © 2015

Note: Actual official high and low records may vary slightly from our data, if they occured in-between our weather recording intervals... More about our weather records


Madurai weather history for previous 24 hours

Time TempWeatherWind HumidityBarometerVisibility
12:30 PM
Mon, Nov 30
81 °FBroken clouds.6 mph84%29.89 "Hg4 mi
12:00 PM79 °FMore clouds than sun.6 mph94%29.92 "Hg4 mi
11:30 AM79 °FMore clouds than sun.3 mph94%29.92 "Hg4 mi
11:00 AM79 °FMore clouds than sun.5 mph84%29.95 "Hg4 mi
10:00 AM77 °FFog.9 mph89%29.95 "Hg2 mi
8:30 AM75 °FFog.5 mph100%29.95 "Hg1 mi
8:00 AM75 °FDrizzle. Broken clouds.6 mph94%29.95 "Hg1 mi
7:30 AM75 °FDrizzle. Broken clouds.7 mph94%29.95 "Hg1 mi
7:00 AM75 °FRain. Broken clouds.5 mph94%29.95 "Hg1 mi
6:00 AM75 °FFog.2 mph94%29.95 "Hg1 mi
5:30 AM75 °FFog.2 mph94%29.92 "Hg1 mi
4:30 AM75 °FPartly cloudy.3 mph94%29.92 "Hg1 mi
4:00 AM75 °FPartly cloudy.2 mph94%29.92 "Hg1 mi
3:30 AM75 °FPartly cloudy.5 mph94%29.89 "Hg1 mi
3:00 AM75 °FLight rain. Partly cloudy.2 mph94%29.92 "Hg1 mi
2:30 AM75 °FLight rain. Partly cloudy.2 mph94%29.92 "Hg1 mi
2:00 AM75 °FLight rain. Partly cloudy.5 mph94%29.92 "Hg1 mi
1:30 AM75 °FLight rain. Partly cloudy.5 mph94%29.92 "Hg1 mi
12:30 AM75 °FLight rain. Partly cloudy.2 mph94%29.95 "Hg1 mi
11:30 PM
Sun, Nov 29
75 °FPartly cloudy.2 mph94%29.95 "Hg2 mi
11:00 PM75 °FFog.3 mph94%29.95 "Hg2 mi
10:30 PM75 °FFog.2 mph94%29.95 "Hg2 mi
10:00 PM75 °FFog.3 mph94%29.95 "Hg2 mi
9:30 PM75 °FPartly cloudy.2 mph94%29.95 "Hg2 mi
9:00 PM75 °FPartly cloudy.3 mph94%29.95 "Hg2 mi
8:30 PM75 °FPartly cloudy.2 mph94%29.95 "Hg2 mi
8:00 PM77 °FPartly cloudy.5 mph94%29.92 "Hg2 mi
7:30 PM77 °FLight rain. Partly cloudy.6 mph94%29.92 "Hg2 mi
7:00 PM77 °FThunderstorms. Partly cloudy.5 mph94%29.89 "Hg1 mi
6:30 PM77 °FThunderstorms. Partly cloudy.5 mph94%29.89 "Hg1 mi
6:00 PM79 °FLight rain. Broken clouds.14 mph94%29.89 "Hg1 mi
5:30 PM79 °FLight rain. Broken clouds.5 mph94%29.86 "Hg1 mi
5:00 PM79 °FRain. Broken clouds.7 mph94%29.86 "Hg1 mi
4:30 PM81 °FRain. Broken clouds.10 mph84%29.83 "Hg1 mi
4:00 PM82 °FFog.10 mph79%29.83 "Hg2 mi
3:30 PM82 °FScattered clouds.9 mph79%29.83 "Hg2 mi
3:00 PM84 °FScattered clouds.9 mph74%29.83 "Hg2 mi
2:30 PM84 °FBroken clouds.10 mph74%29.83 "Hg2 mi
2:00 PM84 °FBroken clouds.9 mph74%29.86 "Hg2 mi
1:30 PM82 °FBroken clouds.10 mph79%29.86 "Hg2 mi
Weather by CustomWeather, © 2015

See weather overviewHow to use our weather pages